#Datum;Uhrzeit;WR;Pac;DaySum;Status;WR;Pac;DaySum;Status;Pdc1;Udc;Temp;WR;Pac;DaySum;Status;Pdc1;Udc;Temp;WR;Pac;DaySum;Status;Pdc1;Udc;Temp;WR;Pac;DaySum;Status;Pdc1;Pdc2;Udc1;Udc2;Temp;WR;Pac;DaySum;Status;Pdc1;Pdc2;Udc1;Udc2;Temp;WR;Pac;DaySum;Status;Pdc1;Udc;Temp;WR;Pac;DaySum;Status;Pdc1;Udc;Temp;WR;Pac;DaySum;Status;Pdc1;Udc;Temp
27.11.19;23:55:00;1;222;10346;0;2;0;1820;0;0;0;0;3;0;1064;0;0;0;0;4;0;1454;0;0;0;0;5;0;4034;0;0;0;0;0;0;6;0;2328;0;0;0;0;0;0;7;0;1889;0;0;0;0;8;0;1893;0;0;0;0;9;0;968;0;0;0;0
27.11.19;23:50:00;1;259;10327;0;2;0;1820;0;0;0;0;3;0;1064;0;0;0;0;4;0;1454;0;0;0;0;5;0;4034;0;0;0;0;0;0;6;0;2328;0;0;0;0;0;0;7;0;1889;0;0;0;0;8;0;1893;0;0;0;0;9;0;968;0;0;0;0
27.11.19;23:45:00;1;260;10305;0;2;0;1820;0;0;0;0;3;0;1064;0;0;0;0;4;0;1454;0;0;0;0;5;0;4034;0;0;0;0;0;0;6;0;2328;0;0;0;0;0;0;7;0;1889;0;0;0;0;8;0;1893;0;0;0;0;9;0;968;0;0;0;0
27.11.19;23:40:00;1;291;10283;0;2;0;1820;0;0;0;0;3;0;1064;0;0;0;0;4;0;1454;0;0;0;0;5;0;4034;0;0;0;0;0;0;6;0;2328;0;0;0;0;0;0;7;0;1889;0;0;0;0;8;0;1893;0;0;0;0;9;0;968;0;0;0;0
27.11.19;23:35:00;1;218;10261;0;2;0;1820;0;0;0;0;3;0;1064;0;0;0;0;4;0;1454;0;0;0;0;5;0;4034;0;0;0;0;0;0;6;0;2328;0;0;0;0;0;0;7;0;1889;0;0;0;0;8;0;1893;0;0;0;0;9;0;968;0;0;0;0
27.11.19;23:30:00;1;220;10243;0;2;0;1820;0;0;0;0;3;0;1064;0;0;0;0;4;0;1454;0;0;0;0;5;0;4034;0;0;0;0;0;0;6;0;2328;0;0;0;0;0;0;7;0;1889;0;0;0;0;8;0;1893;0;0;0;0;9;0;968;0;0;0;0
27.11.19;23:25:00;1;230;10225;0;2;0;1820;0;0;0;0;3;0;1064;0;0;0;0;4;0;1454;0;0;0;0;5;0;4034;0;0;0;0;0;0;6;0;2328;0;0;0;0;0;0;7;0;1889;0;0;0;0;8;0;1893;0;0;0;0;9;0;968;0;0;0;0
27.11.19;23:20:00;1;266;10205;0;2;0;1820;0;0;0;0;3;0;1064;0;0;0;0;4;0;1454;0;0;0;0;5;0;4034;0;0;0;0;0;0;6;0;2328;0;0;0;0;0;0;7;0;1889;0;0;0;0;8;0;1893;0;0;0;0;9;0;968;0;0;0;0
27.11.19;23:15:00;1;221;10183;0;2;0;1820;0;0;0;0;3;0;1064;0;0;0;0;4;0;1454;0;0;0;0;5;0;4034;0;0;0;0;0;0;6;0;2328;0;0;0;0;0;0;7;0;1889;0;0;0;0;8;0;1893;0;0;0;0;9;0;968;0;0;0;0
27.11.19;23:10:00;1;221;10164;0;2;0;1820;0;0;0;0;3;0;1064;0;0;0;0;4;0;1454;0;0;0;0;5;0;4034;0;0;0;0;0;0;6;0;2328;0;0;0;0;0;0;7;0;1889;0;0;0;0;8;0;1893;0;0;0;0;9;0;968;0;0;0;0
27.11.19;23:05:00;1;222;10146;0;2;0;1820;0;0;0;0;3;0;1064;0;0;0;0;4;0;1454;0;0;0;0;5;0;4034;0;0;0;0;0;0;6;0;2328;0;0;0;0;0;0;7;0;1889;0;0;0;0;8;0;1893;0;0;0;0;9;0;968;0;0;0;0
27.11.19;23:00:00;1;260;10127;0;2;0;1820;0;0;0;0;3;0;1064;0;0;0;0;4;0;1454;0;0;0;0;5;0;4034;0;0;0;0;0;0;6;0;2328;0;0;0;0;0;0;7;0;1889;0;0;0;0;8;0;1893;0;0;0;0;9;0;968;0;0;0;0
27.11.19;22:55:00;1;267;10105;0;2;0;1820;0;0;0;0;3;0;1064;0;0;0;0;4;0;1454;0;0;0;0;5;0;4034;2;0;0;0;0;0;6;0;2328;2;0;0;0;0;0;7;0;1889;0;0;0;0;8;0;1893;0;0;0;0;9;0;968;0;0;0;0
27.11.19;22:50:00;1;267;10083;0;2;0;1820;0;0;0;0;3;0;1064;0;0;0;0;4;0;1454;0;0;0;0;5;0;4034;2;0;0;0;0;0;6;0;2328;2;0;0;0;0;0;7;0;1889;0;0;0;0;8;0;1893;0;0;0;0;9;0;968;0;0;0;0
27.11.19;22:45:00;1;236;10061;0;2;0;1820;0;0;0;0;3;0;1064;0;0;0;0;4;0;1454;0;0;0;0;5;0;4034;2;0;0;0;0;0;6;0;2328;2;0;0;0;0;0;7;0;1889;0;0;0;0;8;0;1893;0;0;0;0;9;0;968;0;0;0;0
27.11.19;22:40:00;1;248;10041;0;2;0;1820;0;0;0;0;3;0;1064;0;0;0;0;4;0;1454;0;0;0;0;5;0;4034;2;0;0;0;0;0;6;0;2328;2;0;0;0;0;0;7;0;1889;0;0;0;0;8;0;1893;0;0;0;0;9;0;968;0;0;0;0
27.11.19;22:35:00;1;286;10020;0;2;0;1820;0;0;0;0;3;0;1064;0;0;0;0;4;0;1454;0;0;0;0;5;0;4034;2;0;0;0;0;0;6;0;2328;2;0;0;0;0;0;7;0;1889;0;0;0;0;8;0;1893;0;0;0;0;9;0;968;0;0;0;0
27.11.19;22:30:00;1;286;9996;0;2;0;1820;0;0;0;0;3;0;1064;0;0;0;0;4;0;1454;0;0;0;0;5;0;4034;2;0;0;0;0;0;6;0;2328;2;0;0;0;0;0;7;0;1889;0;0;0;0;8;0;1893;0;0;0;0;9;0;968;0;0;0;0
27.11.19;22:25:00;1;287;9972;0;2;0;1820;0;0;0;0;3;0;1064;0;0;0;0;4;0;1454;0;0;0;0;5;0;4034;2;0;0;0;0;0;6;0;2328;2;0;0;0;0;0;7;0;1889;0;0;0;0;8;0;1893;0;0;0;0;9;0;968;0;0;0;0
27.11.19;22:20:00;1;287;9948;0;2;0;1820;0;0;0;0;3;0;1064;0;0;0;0;4;0;1454;0;0;0;0;5;0;4034;2;0;0;0;0;0;6;0;2328;2;0;0;0;0;0;7;0;1889;0;0;0;0;8;0;1893;0;0;0;0;9;0;968;0;0;0;0
27.11.19;22:15:00;1;317;9924;0;2;0;1820;0;0;0;0;3;0;1064;0;0;0;0;4;0;1454;0;0;0;0;5;0;4034;2;0;0;0;0;0;6;0;2328;2;0;0;0;0;0;7;0;1889;0;0;0;0;8;0;1893;0;0;0;0;9;0;968;0;0;0;0
27.11.19;22:10:00;1;371;9897;0;2;0;1820;0;0;0;0;3;0;1064;0;0;0;0;4;0;1454;0;0;0;0;5;0;4034;2;0;0;0;0;0;6;0;2328;2;0;0;0;0;0;7;0;1889;0;0;0;0;8;0;1893;0;0;0;0;9;0;968;0;0;0;0
27.11.19;22:05:00;1;393;9865;0;2;0;1820;0;0;0;0;3;0;1064;0;0;0;0;4;0;1454;0;0;0;0;5;0;4034;2;0;0;0;0;0;6;0;2328;2;0;0;0;0;0;7;0;1889;0;0;0;0;8;0;1893;0;0;0;0;9;0;968;0;0;0;0
27.11.19;22:00:00;1;429;9832;0;2;0;1820;0;0;0;0;3;0;1064;0;0;0;0;4;0;1454;0;0;0;0;5;0;4034;2;0;0;0;0;0;6;0;2328;2;0;0;0;0;0;7;0;1889;0;0;0;0;8;0;1893;0;0;0;0;9;0;968;0;0;0;0
27.11.19;21:55:00;1;1070;9797;0;2;0;1820;0;0;0;0;3;0;1064;0;0;0;0;4;0;1454;0;0;0;0;5;0;4034;2;0;0;0;0;0;6;0;2328;2;0;0;0;0;0;7;0;1889;0;0;0;0;8;0;1893;0;0;0;0;9;0;968;0;0;0;0
27.11.19;21:50:00;1;381;9710;0;2;0;1820;0;0;0;0;3;0;1064;0;0;0;0;4;0;1454;0;0;0;0;5;0;4034;2;0;0;0;0;0;6;0;2328;2;0;0;0;0;0;7;0;1889;0;0;0;0;8;0;1893;0;0;0;0;9;0;968;0;0;0;0
27.11.19;21:45:00;1;392;9678;0;2;0;1820;0;0;0;0;3;0;1064;0;0;0;0;4;0;1454;0;0;0;0;5;0;4034;2;0;0;0;0;0;6;0;2328;2;0;0;0;0;0;7;0;1889;0;0;0;0;8;0;1893;0;0;0;0;9;0;968;0;0;0;0
27.11.19;21:40:00;1;525;9645;0;2;0;1820;0;0;0;0;3;0;1064;0;0;0;0;4;0;1454;0;0;0;0;5;0;4034;2;0;0;0;0;0;6;0;2328;2;0;0;0;0;0;7;0;1889;0;0;0;0;8;0;1893;0;0;0;0;9;0;968;0;0;0;0
27.11.19;21:35:00;1;547;9600;0;2;0;1820;0;0;0;0;3;0;1064;0;0;0;0;4;0;1454;0;0;0;0;5;0;4034;2;0;0;0;0;0;6;0;2328;2;0;0;0;0;0;7;0;1889;0;0;0;0;8;0;1893;0;0;0;0;9;0;968;0;0;0;0
27.11.19;21:30:00;1;589;9554;0;2;0;1820;0;0;0;0;3;0;1064;0;0;0;0;4;0;1454;0;0;0;0;5;0;4034;2;0;0;0;0;0;6;0;2328;2;0;0;0;0;0;7;0;1889;0;0;0;0;8;0;1893;0;0;0;0;9;0;968;0;0;0;0
27.11.19;21:25:00;1;616;9504;0;2;0;1820;0;0;0;0;3;0;1064;0;0;0;0;4;0;1454;0;0;0;0;5;0;4034;2;0;0;0;0;0;6;0;2328;2;0;0;0;0;0;7;0;1889;0;0;0;0;8;0;1893;0;0;0;0;9;0;968;0;0;0;0
27.11.19;21:20:00;1;566;9453;0;2;0;1820;0;0;0;0;3;0;1064;0;0;0;0;4;0;1454;0;0;0;0;5;0;4034;2;0;0;0;0;0;6;0;2328;2;0;0;0;0;0;7;0;1889;0;0;0;0;8;0;1893;0;0;0;0;9;0;968;0;0;0;0
27.11.19;21:15:00;1;676;9405;0;2;0;1820;0;0;0;0;3;0;1064;0;0;0;0;4;0;1454;0;0;0;0;5;0;4034;2;0;0;0;0;0;6;0;2328;2;0;0;0;0;0;7;0;1889;0;0;0;0;8;0;1893;0;0;0;0;9;0;968;0;0;0;0
27.11.19;21:10:00;1;746;9346;0;2;0;1820;0;0;0;0;3;0;1064;0;0;0;0;4;0;1454;0;0;0;0;5;0;4034;2;0;0;0;0;0;6;0;2328;2;0;0;0;0;0;7;0;1889;0;0;0;0;8;0;1893;0;0;0;0;9;0;968;0;0;0;0
27.11.19;21:05:00;1;744;9285;0;2;0;1820;0;0;0;0;3;0;1064;0;0;0;0;4;0;1454;0;0;0;0;5;0;4034;2;0;0;0;0;0;6;0;2328;2;0;0;0;0;0;7;0;1889;0;0;0;0;8;0;1893;0;0;0;0;9;0;968;0;0;0;0
27.11.19;21:00:00;1;721;9221;0;2;0;1820;0;0;0;0;3;0;1064;0;0;0;0;4;0;1454;0;0;0;0;5;0;4034;2;0;0;0;0;0;6;0;2328;2;0;0;0;0;0;7;0;1889;0;0;0;0;8;0;1893;0;0;0;0;9;0;968;0;0;0;0
27.11.19;20:55:00;1;747;9161;0;2;0;1820;0;0;0;0;3;0;1064;0;0;0;0;4;0;1454;0;0;0;0;5;0;4034;2;0;0;0;0;0;6;0;2328;2;0;0;0;0;0;7;0;1889;0;0;0;0;8;0;1893;0;0;0;0;9;0;968;0;0;0;0
27.11.19;20:50:00;1;788;9098;0;2;0;1820;0;0;0;0;3;0;1064;0;0;0;0;4;0;1454;0;0;0;0;5;0;4034;2;0;0;0;0;0;6;0;2328;2;0;0;0;0;0;7;0;1889;0;0;0;0;8;0;1893;0;0;0;0;9;0;968;0;0;0;0
27.11.19;20:45:00;1;819;9033;0;2;0;1820;0;0;0;0;3;0;1064;0;0;0;0;4;0;1454;0;0;0;0;5;0;4034;2;0;0;0;0;0;6;0;2328;2;0;0;0;0;0;7;0;1889;0;0;0;0;8;0;1893;0;0;0;0;9;0;968;0;0;0;0
27.11.19;20:40:00;1;836;8964;0;2;0;1820;0;0;0;0;3;0;1064;0;0;0;0;4;0;1454;0;0;0;0;5;0;4034;2;0;0;0;0;0;6;0;2328;2;0;0;0;0;0;7;0;1889;0;0;0;0;8;0;1893;0;0;0;0;9;0;968;0;0;0;0
27.11.19;20:35:00;1;841;8894;0;2;0;1820;0;0;0;0;3;0;1064;0;0;0;0;4;0;1454;0;0;0;0;5;0;4034;2;0;0;0;0;0;6;0;2328;2;0;0;0;0;0;7;0;1889;0;0;0;0;8;0;1893;0;0;0;0;9;0;968;0;0;0;0
27.11.19;20:30:00;1;960;8823;0;2;0;1820;0;0;0;0;3;0;1064;0;0;0;0;4;0;1454;0;0;0;0;5;0;4034;2;0;0;0;0;0;6;0;2328;2;0;0;0;0;0;7;0;1889;0;0;0;0;8;0;1893;0;0;0;0;9;0;968;0;0;0;0
27.11.19;20:25:00;1;977;8744;0;2;0;1820;0;0;0;0;3;0;1064;0;0;0;0;4;0;1454;0;0;0;0;5;0;4034;2;0;0;0;0;0;6;0;2328;2;0;0;0;0;0;7;0;1889;0;0;0;0;8;0;1893;0;0;0;0;9;0;968;0;0;0;0
27.11.19;20:20:00;1;959;8664;0;2;0;1820;0;0;0;0;3;0;1064;0;0;0;0;4;0;1454;0;0;0;0;5;0;4034;2;0;0;0;0;0;6;0;2328;2;0;0;0;0;0;7;0;1889;0;0;0;0;8;0;1893;0;0;0;0;9;0;968;0;0;0;0
27.11.19;20:15:00;1;881;8585;0;2;0;1820;0;0;0;0;3;0;1064;0;0;0;0;4;0;1454;0;0;0;0;5;0;4034;2;0;0;0;0;0;6;0;2328;2;0;0;0;0;0;7;0;1889;0;0;0;0;8;0;1893;0;0;0;0;9;0;968;0;0;0;0
27.11.19;20:10:00;1;907;8509;0;2;0;1820;0;0;0;0;3;0;1064;0;0;0;0;4;0;1454;0;0;0;0;5;0;4034;2;0;0;0;0;0;6;0;2328;2;0;0;0;0;0;7;0;1889;0;0;0;0;8;0;1893;0;0;0;0;9;0;968;0;0;0;0
27.11.19;20:05:00;1;813;8437;0;2;0;1820;0;0;0;0;3;0;1064;0;0;0;0;4;0;1454;0;0;0;0;5;0;4034;2;0;0;0;0;0;6;0;2328;2;0;0;0;0;0;7;0;1889;0;0;0;0;8;0;1893;0;0;0;0;9;0;968;0;0;0;0
27.11.19;20:00:00;1;838;8370;0;2;0;1820;0;0;0;0;3;0;1064;0;0;0;0;4;0;1454;0;0;0;0;5;0;4034;2;0;0;0;0;0;6;0;2328;2;0;0;0;0;0;7;0;1889;0;0;0;0;8;0;1893;0;0;0;0;9;0;968;0;0;0;0
27.11.19;19:55:00;1;874;8299;0;2;0;1820;0;0;0;0;3;0;1064;0;0;0;0;4;0;1454;0;0;0;0;5;0;4034;2;0;0;0;0;0;6;0;2328;2;0;0;0;0;0;7;0;1889;0;0;0;0;8;0;1893;0;0;0;0;9;0;968;0;0;0;0
27.11.19;19:50:00;1;859;8228;0;2;0;1820;0;0;0;0;3;0;1064;0;0;0;0;4;0;1454;0;0;0;0;5;0;4034;2;0;0;0;0;0;6;0;2328;2;0;0;0;0;0;7;0;1889;0;0;0;0;8;0;1893;0;0;0;0;9;0;968;0;0;0;0
27.11.19;19:45:00;1;874;8157;0;2;0;1820;0;0;0;0;3;0;1064;0;0;0;0;4;0;1454;0;0;0;0;5;0;4034;2;0;0;0;0;0;6;0;2328;2;0;0;0;0;0;7;0;1889;0;0;0;0;8;0;1893;0;0;0;0;9;0;968;0;0;0;0
27.11.19;19:40:00;1;853;8085;0;2;0;1820;0;0;0;0;3;0;1064;0;0;0;0;4;0;1454;0;0;0;0;5;0;4034;2;0;0;0;0;0;6;0;2328;2;0;0;0;0;0;7;0;1889;0;0;0;0;8;0;1893;0;0;0;0;9;0;968;0;0;0;0
27.11.19;19:35:00;1;893;8014;0;2;0;1820;0;0;0;0;3;0;1064;0;0;0;0;4;0;1454;0;0;0;0;5;0;4034;2;0;0;0;0;0;6;0;2328;2;0;0;0;0;0;7;0;1889;0;0;0;0;8;0;1893;0;0;0;0;9;0;968;0;0;0;0
27.11.19;19:30:00;1;905;7939;0;2;0;1820;0;0;0;0;3;0;1064;0;0;0;0;4;0;1454;0;0;0;0;5;0;4034;2;0;0;0;0;0;6;0;2328;2;0;0;0;0;0;7;0;1889;0;0;0;0;8;0;1893;0;0;0;0;9;0;968;0;0;0;0
27.11.19;19:25:00;1;1238;7860;0;2;0;1820;0;0;0;0;3;0;1064;0;0;0;0;4;0;1454;0;0;0;0;5;0;4034;2;0;0;0;0;0;6;0;2328;2;0;0;0;0;0;7;0;1889;0;0;0;0;8;0;1893;0;0;0;0;9;0;968;0;0;0;0
27.11.19;19:20:00;1;964;7730;0;2;0;1820;0;0;0;0;3;0;1064;0;0;0;0;4;0;1454;0;0;0;0;5;0;4034;2;0;0;0;0;0;6;0;2328;2;0;0;0;0;0;7;0;1889;0;0;0;0;8;0;1893;0;0;0;0;9;0;968;0;0;0;0
27.11.19;19:15:00;1;838;7648;0;2;0;1820;0;0;0;0;3;0;1064;0;0;0;0;4;0;1454;0;0;0;0;5;0;4034;2;0;0;0;0;0;6;0;2328;2;0;0;0;0;0;7;0;1889;0;0;0;0;8;0;1893;0;0;0;0;9;0;968;0;0;0;0
27.11.19;19:10:00;1;747;7580;0;2;0;1820;0;0;0;0;3;0;1064;0;0;0;0;4;0;1454;0;0;0;0;5;0;4034;2;0;0;0;0;0;6;0;2328;2;0;0;0;0;0;7;0;1889;0;0;0;0;8;0;1893;0;0;0;0;9;0;968;0;0;0;0
27.11.19;19:05:00;1;1271;7517;0;2;0;1820;0;0;0;0;3;0;1064;0;0;0;0;4;0;1454;0;0;0;0;5;0;4034;2;0;0;0;0;0;6;0;2328;2;0;0;0;0;0;7;0;1889;0;0;0;0;8;0;1893;0;0;0;0;9;0;968;0;0;0;0
27.11.19;19:00:00;1;2551;7387;0;2;0;1820;0;0;0;0;3;0;1064;0;0;0;0;4;0;1454;0;0;0;0;5;0;4034;2;0;0;0;0;0;6;0;2328;2;0;0;0;0;0;7;0;1889;0;0;0;0;8;0;1893;0;0;0;0;9;0;968;0;0;0;0
27.11.19;18:55:00;1;2554;7171;0;2;0;1820;0;0;0;0;3;0;1064;0;0;0;0;4;0;1454;0;0;0;0;5;0;4034;2;0;0;0;0;0;6;0;2328;2;0;0;0;0;0;7;0;1889;0;0;0;0;8;0;1893;0;0;0;0;9;0;968;0;0;0;0
27.11.19;18:50:00;1;2353;6956;0;2;0;1820;0;0;0;0;3;0;1064;0;0;0;0;4;0;1454;0;0;0;0;5;0;4034;2;0;0;0;0;0;6;0;2328;2;0;0;0;0;0;7;0;1889;0;0;0;0;8;0;1893;0;0;0;0;9;0;968;0;0;0;0
27.11.19;18:45:00;1;738;6782;0;2;0;1820;0;0;0;0;3;0;1064;0;0;0;0;4;0;1454;0;0;0;0;5;0;4034;2;0;0;0;0;0;6;0;2328;2;0;0;0;0;0;7;0;1889;0;0;0;0;8;0;1893;0;0;0;0;9;0;968;0;0;0;0
27.11.19;18:40:00;1;669;6721;0;2;0;1820;0;0;0;0;3;0;1064;0;0;0;0;4;0;1454;0;0;0;0;5;0;4034;2;0;0;0;0;0;6;0;2328;2;0;0;0;0;0;7;0;1889;0;0;0;0;8;0;1893;0;0;0;0;9;0;968;0;0;0;0
27.11.19;18:35:00;1;584;6667;0;2;0;1820;0;0;0;0;3;0;1064;0;0;0;0;4;0;1454;0;0;0;0;5;0;4034;2;0;0;0;0;0;6;0;2328;2;0;0;0;0;0;7;0;1889;0;0;0;0;8;0;1893;0;0;0;0;9;0;968;0;0;0;0
27.11.19;18:30:00;1;589;6618;0;2;0;1820;0;0;0;0;3;0;1064;0;0;0;0;4;0;1454;0;0;0;0;5;0;4034;2;0;0;0;0;0;6;0;2328;2;0;0;0;0;0;7;0;1889;0;0;0;0;8;0;1893;0;0;0;0;9;0;968;0;0;0;0
27.11.19;18:25:00;1;600;6569;0;2;0;1820;0;0;0;0;3;0;1064;0;0;0;0;4;0;1454;0;0;0;0;5;0;4034;2;0;0;0;0;0;6;0;2328;2;0;0;0;0;0;7;0;1889;0;0;0;0;8;0;1893;0;0;0;0;9;0;968;0;0;0;0
27.11.19;18:20:00;1;696;6519;0;2;0;1820;0;0;0;0;3;0;1064;0;0;0;0;4;0;1454;0;0;0;0;5;0;4034;2;0;0;0;0;0;6;0;2328;2;0;0;0;0;0;7;0;1889;0;0;0;0;8;0;1893;0;0;0;0;9;0;968;0;0;0;0
27.11.19;18:15:00;1;734;6459;0;2;0;1820;0;0;0;0;3;0;1064;0;0;0;0;4;0;1454;0;0;0;0;5;0;4034;2;0;0;0;0;0;6;0;2328;2;0;0;0;0;0;7;0;1889;0;0;0;0;8;0;1893;0;0;0;0;9;0;968;0;0;0;0
27.11.19;18:10:00;1;731;6398;0;2;0;1820;0;0;0;0;3;0;1064;0;0;0;0;4;0;1454;0;0;0;0;5;0;4034;2;0;0;0;0;0;6;0;2328;2;0;0;0;0;0;7;0;1889;0;0;0;0;8;0;1893;0;0;0;0;9;0;968;0;0;0;0
27.11.19;18:05:00;1;688;6337;0;2;0;1820;0;0;0;0;3;0;1064;0;0;0;0;4;0;1454;0;0;0;0;5;0;4034;2;0;0;0;0;0;6;0;2328;2;0;0;0;0;0;7;0;1889;0;0;0;0;8;0;1893;0;0;0;0;9;0;968;0;0;0;0
27.11.19;18:00:00;1;697;6281;0;2;0;1820;0;0;0;0;3;0;1064;0;0;0;0;4;0;1454;0;0;0;0;5;0;4034;2;0;0;0;0;0;6;0;2328;2;0;0;0;0;0;7;0;1889;0;0;0;0;8;0;1893;0;0;0;0;9;0;968;0;0;0;0
27.11.19;17:55:00;1;630;6227;0;2;0;1820;0;0;0;0;3;0;1064;0;0;0;0;4;0;1454;0;0;0;0;5;0;4034;2;0;0;0;0;0;6;0;2328;2;0;0;0;0;0;7;0;1889;0;0;0;0;8;0;1893;0;0;0;0;9;0;968;0;0;0;0
27.11.19;17:50:00;1;638;6175;0;2;0;1820;0;0;0;0;3;0;1064;0;0;0;0;4;0;1454;0;0;0;0;5;0;4034;2;0;0;0;0;0;6;0;2328;2;0;0;0;0;0;7;0;1889;0;0;0;0;8;0;1893;0;0;0;0;9;0;968;0;0;0;0
27.11.19;17:45:00;1;671;6121;0;2;0;1820;0;0;0;0;3;0;1064;0;0;0;0;4;0;1454;0;0;0;0;5;0;4034;2;0;0;0;0;0;6;0;2328;2;0;0;0;0;0;7;0;1889;0;0;0;0;8;0;1893;0;0;0;0;9;0;968;0;0;0;0
27.11.19;17:40:00;1;931;6065;0;2;0;1820;0;0;0;0;3;0;1064;0;0;0;0;4;0;1454;0;0;0;0;5;0;4034;2;0;0;0;0;0;6;0;2328;2;0;0;0;0;0;7;0;1889;0;0;0;0;8;0;1893;0;0;0;0;9;0;968;0;0;0;0
27.11.19;17:35:00;1;2068;6002;0;2;0;1820;0;0;0;0;3;0;1064;0;0;0;0;4;0;1454;0;0;0;0;5;0;4034;2;0;0;0;0;0;6;0;2328;2;0;0;0;0;0;7;0;1889;0;0;0;0;8;0;1893;0;0;0;0;9;0;968;0;0;0;0
27.11.19;17:30:00;1;2685;5848;0;2;0;1820;0;0;0;0;3;0;1064;0;0;0;0;4;0;1454;0;0;0;0;5;0;4034;2;0;0;0;0;0;6;0;2328;2;0;0;0;0;0;7;0;1889;0;0;0;0;8;0;1893;0;0;0;0;9;0;968;0;0;0;0
27.11.19;17:25:00;1;2931;5621;0;2;0;1820;0;0;0;0;3;0;1064;0;0;0;0;4;0;1454;0;0;0;0;5;0;4034;2;0;0;0;0;0;6;0;2328;2;0;0;0;0;0;7;0;1889;0;0;0;0;8;0;1893;0;0;0;0;9;0;968;0;0;0;0
27.11.19;17:20:00;1;2154;5380;0;2;0;1820;0;0;0;0;3;0;1064;0;0;0;0;4;0;1454;0;0;0;0;5;0;4034;2;0;0;0;0;0;6;0;2328;2;0;0;0;0;0;7;0;1889;0;0;0;0;8;0;1893;0;0;0;0;9;0;968;0;0;0;0
27.11.19;17:15:00;1;911;5228;0;2;0;1820;0;0;0;0;3;0;1064;0;0;0;0;4;0;1454;0;0;0;0;5;0;4034;2;0;0;0;0;0;6;0;2328;2;0;0;0;0;0;7;0;1889;0;0;0;0;8;0;1893;0;0;0;0;9;0;968;0;0;0;0
27.11.19;17:10:00;1;2629;5133;0;2;0;1820;0;0;0;0;3;0;1064;0;0;0;0;4;0;1454;0;0;0;0;5;0;4034;2;0;0;0;0;0;6;0;2328;2;0;0;0;0;0;7;0;1889;0;0;0;0;8;0;1893;0;0;0;0;9;0;968;0;0;0;0
27.11.19;17:05:00;1;2450;4917;0;2;0;1820;0;0;0;0;3;0;1064;0;0;0;0;4;0;1454;0;0;0;0;5;0;4034;2;0;0;0;0;0;6;0;2328;2;0;0;0;0;0;7;0;1889;0;0;0;0;8;0;1893;0;0;0;0;9;0;968;0;0;0;0
27.11.19;17:00:00;1;2513;4711;0;2;0;1820;0;0;0;0;3;0;1064;0;0;0;0;4;0;1454;0;0;0;0;5;0;4034;2;0;0;0;0;0;6;0;2328;2;0;0;0;0;0;7;0;1889;0;0;0;0;8;0;1893;0;0;0;0;9;0;968;0;0;0;0
27.11.19;16:55:00;1;2055;4503;0;2;0;1820;0;0;0;0;3;0;1064;0;0;0;0;4;0;1454;0;0;0;0;5;0;4034;2;0;0;0;0;0;6;0;2328;2;0;0;0;0;0;7;0;1889;0;0;0;0;8;0;1893;0;0;0;0;9;0;968;0;0;0;0
27.11.19;16:50:00;1;875;4297;0;2;0;1820;0;0;0;0;3;0;1064;0;0;0;0;4;0;1454;0;0;0;0;5;0;4034;2;0;0;0;0;0;6;0;2328;2;0;0;0;0;0;7;0;1889;0;0;0;0;8;0;1893;0;0;0;0;9;0;968;0;0;0;0
27.11.19;16:45:00;1;391;4211;0;2;0;1820;0;0;0;0;3;0;1064;0;0;0;0;4;0;1454;0;0;0;0;5;0;4034;2;0;0;0;0;0;6;0;2328;2;0;0;0;0;0;7;0;1889;0;0;0;0;8;0;1893;0;0;0;0;9;0;968;0;0;0;0
27.11.19;16:40:00;1;312;4179;0;2;0;1820;0;0;0;0;3;0;1064;0;0;0;0;4;0;1454;0;0;0;0;5;0;4034;2;0;0;0;0;0;6;0;2328;2;0;0;0;0;0;7;0;1889;0;0;0;0;8;0;1893;0;0;0;0;9;0;968;0;0;0;0
27.11.19;16:35:00;1;312;4152;0;2;0;1820;0;0;172;8;3;0;1064;6;0;283;15;4;0;1454;0;0;20;4;5;0;4034;2;0;0;0;0;0;6;0;2328;2;0;0;0;0;0;7;0;1889;0;0;0;0;8;0;1893;0;0;0;0;9;0;968;0;0;0;0
27.11.19;16:30:00;1;312;4126;0;2;0;1820;6;0;304;12;3;0;1064;6;0;355;15;4;0;1454;2;0;91;12;5;0;4034;2;0;0;85;84;11;6;0;2328;0;1;0;34;34;4;7;0;1889;0;0;0;0;8;0;1893;0;0;0;0;9;0;968;0;0;0;0
27.11.19;16:25:00;1;324;4100;0;2;0;1820;6;0;349;12;3;0;1064;6;4;398;15;4;0;1454;1;0;140;13;5;0;4034;23;0;0;375;400;24;6;0;2328;23;10;0;483;180;23;7;0;1889;0;0;229;12;8;0;1893;0;0;232;12;9;0;968;6;0;294;11
27.11.19;16:20:00;1;270;4075;0;2;0;1820;6;0;382;12;3;0;1064;6;1;463;15;4;0;1454;1;0;196;13;5;0;4034;26;0;0;415;604;24;6;0;2328;23;9;1;249;554;23;7;0;1889;6;0;362;16;8;0;1893;6;0;368;16;9;0;968;6;0;410;12
27.11.19;16:15:00;1;268;4053;0;2;0;1820;6;0;407;12;3;2;1064;6;5;494;15;4;0;1454;3;0;198;14;5;78;4034;4;13;20;369;584;25;6;21;2328;1;20;11;539;513;24;7;0;1889;6;4;414;16;8;0;1893;6;4;415;16;9;0;968;4;0;478;12
27.11.19;16:10:00;1;261;4030;0;2;4;1820;6;8;410;13;3;0;1063;6;0;527;15;4;1;1454;3;1;199;14;5;110;4027;4;33;37;369;584;25;6;64;2326;4;30;21;446;408;24;7;1;1889;6;4;465;16;8;0;1893;6;4;467;16;9;1;968;3;5;491;12
27.11.19;16:05:00;1;207;4009;0;2;14;1820;6;24;398;13;3;5;1063;3;16;485;15;4;4;1454;3;4;199;14;5;126;4018;4;45;45;369;584;25;6;78;2320;4;46;31;446;408;24;7;2;1889;6;17;444;17;8;3;1893;6;9;455;16;9;1;968;6;5;517;12
27.11.19;16:00:00;1;206;3992;0;2;33;1819;6;50;381;13;3;3;1063;6;9;528;16;4;16;1454;3;17;199;14;5;152;4007;4;57;58;369;584;25;6;93;2313;4;45;33;446;408;24;7;2;1888;6;7;481;17;8;1;1893;6;7;482;16;9;1;968;6;4;531;12
27.11.19;15:55:00;1;206;3975;0;2;77;1816;4;104;364;13;3;9;1063;6;14;535;16;4;45;1453;3;47;199;14;5;213;3994;4;97;89;370;584;25;6;134;2305;4;88;70;446;408;24;7;49;1888;6;82;391;17;8;47;1893;6;73;423;17;9;10;968;6;18;508;12
27.11.19;15:50:00;1;247;3957;0;2;59;1810;4;76;391;13;3;7;1062;6;13;538;16;4;44;1449;3;46;199;14;5;205;3976;4;87;86;369;584;25;6;130;2294;4;103;79;446;408;24;7;77;1884;4;112;403;17;8;79;1889;4;112;427;16;9;8;967;6;11;557;12
27.11.19;15:45:00;1;249;3936;0;2;7;1805;6;12;412;13;3;2;1061;6;9;517;16;4;9;1445;3;9;209;14;5;127;3960;4;46;50;369;584;25;6;80;2283;4;40;28;446;408;24;7;10;1878;4;14;469;17;8;11;1883;4;14;471;17;9;0;967;6;0;550;13
27.11.19;15:40:00;1;252;3915;0;2;2;1804;6;7;405;13;3;0;1061;6;5;506;16;4;1;1444;3;1;214;14;5;94;3950;4;25;29;369;584;25;6;59;2277;4;39;28;451;408;24;7;2;1877;3;6;439;17;8;2;1882;3;6;443;17;9;0;967;3;5;486;13
27.11.19;15:35:00;1;237;3894;0;2;0;1804;6;0;415;14;3;1;1061;3;6;488;16;4;0;1444;3;0;199;14;5;94;3942;4;25;31;369;584;25;6;12;2272;4;14;6;571;556;24;7;3;1876;6;9;429;17;8;0;1881;6;4;454;17;9;5;967;6;5;471;13
27.11.19;15:30:00;1;207;3876;0;2;3;1804;6;7;409;14;3;1;1061;6;6;512;16;4;0;1444;3;0;199;14;5;110;3934;4;35;43;369;584;25;6;52;2271;4;43;13;469;213;25;7;0;1876;6;4;464;18;8;4;1881;6;8;443;17;9;0;966;6;3;513;13
27.11.19;15:25:00;1;207;3859;0;2;87;1804;4;113;361;15;3;23;1061;6;36;520;17;4;47;1444;3;48;198;14;5;227;3925;4;100;94;369;584;25;6;110;2267;4;76;29;469;213;25;7;36;1876;6;57;454;18;8;39;1881;6;55;456;18;9;4;966;6;8;538;13
27.11.19;15:20:00;1;206;3842;0;2;150;1797;4;181;372;15;3;88;1059;4;124;484;17;4;113;1440;3;117;220;14;5;355;3905;4;171;153;381;584;25;6;222;2257;4;124;84;506;358;25;7;131;1873;4;168;430;18;8;133;1878;4;167;413;18;9;63;966;6;85;489;14
27.11.19;15:15:00;1;207;3824;0;2;235;1784;4;272;382;15;3;137;1052;4;181;505;17;4;184;1431;5;192;227;14;5;526;3874;4;257;227;395;608;25;6;396;2237;4;209;198;577;553;25;7;175;1862;4;204;364;14;8;165;1867;4;199;354;14;9;116;961;4;143;500;14
27.11.19;15:10:00;1;207;3807;0;2;316;1764;4;351;401;15;3;192;1040;4;232;511;17;4;269;1415;5;281;234;14;5;711;3827;4;358;302;413;659;25;6;532;2202;4;285;268;582;569;25;7;301;1844;4;338;472;18;8;297;1849;4;343;475;18;9;164;951;4;192;515;14
27.11.19;15:05:00;1;232;3790;0;2;348;1738;4;385;398;16;3;214;1024;4;258;502;18;4;297;1393;5;309;233;15;5;747;3767;4;367;319;407;646;25;6;558;2157;4;281;261;576;571;25;7;409;1819;4;435;477;18;8;402;1825;4;447;466;18;9;217;937;4;248;514;14
27.11.19;15:00:00;1;249;3770;0;2;344;1709;4;383;399;16;3;210;1006;4;254;495;18;4;293;1368;5;305;237;15;5;753;3705;4;381;327;411;640;25;6;569;2110;4;300;284;581;564;25;7;372;1784;4;414;476;18;8;372;1791;4;413;483;18;9;202;919;4;233;520;14
27.11.19;14:55:00;1;251;3749;0;2;416;1680;4;456;405;16;3;257;989;4;303;513;18;4;358;1344;5;373;238;15;5;874;3642;4;434;375;422;674;25;6;651;2063;4;359;342;593;565;25;7;437;1754;4;489;471;18;8;442;1760;4;484;475;18;9;192;897;0;219;414;12
27.11.19;14:50:00;1;240;3728;0;2;446;1646;4;489;401;16;3;277;967;4;323;507;18;4;381;1314;5;397;238;15;5;928;3568;4;463;399;412;671;25;6;697;2008;4;390;359;591;567;25;7;490;1717;4;532;470;18;8;486;1723;4;531;473;18;9;258;883;4;293;528;15
27.11.19;14:45:00;1;208;3709;0;2;632;1609;4;681;409;16;3;394;944;4;446;522;18;4;546;1282;5;568;239;15;5;1280;3490;4;649;552;426;689;25;6;961;1949;4;509;483;597;565;25;7;761;1676;4;804;467;18;8;762;1683;4;812;482;18;9;404;861;4;448;530;15
27.11.19;14:40:00;1;209;3691;0;2;1021;1557;4;1086;421;16;3;650;912;4;711;526;18;4;889;1238;5;926;246;14;5;2035;3378;4;1087;895;431;716;25;6;1479;1866;4;772;740;614;579;24;7;1096;1614;4;1162;490;18;8;1067;1620;4;1130;500;17;9;572;828;4;624;545;15
27.11.19;14:35:00;1;210;3674;0;2;1097;1474;4;1160;412;16;3;695;859;4;761;530;18;4;910;1165;5;948;248;14;5;2033;3207;4;1067;892;434;700;25;6;1545;1738;4;796;757;607;586;24;7;1262;1522;4;1334;497;18;8;1253;1532;4;1320;499;17;9;654;781;4;709;527;14
27.11.19;14:30:00;1;249;3656;0;2;1038;1379;4;1100;414;15;3;661;799;4;723;530;17;4;891;1086;5;928;247;14;5;2006;3038;4;1046;880;431;703;24;6;1521;1610;4;806;769;615;580;24;7;1275;1414;4;1321;491;17;8;1250;1425;4;1313;493;17;9;664;725;4;721;540;14
27.11.19;14:25:00;1;268;3636;0;2;1017;1292;4;1075;418;15;3;648;744;4;709;536;17;4;890;1012;5;927;248;13;5;1948;2870;4;1024;859;436;703;24;6;1362;1483;4;753;593;607;470;24;7;1190;1308;4;1253;488;17;8;1182;1321;4;1246;480;17;9;639;670;4;691;539;14
27.11.19;14:20:00;1;268;3613;0;2;622;1208;4;665;397;14;3;396;690;4;444;501;17;4;541;938;5;564;243;13;5;1262;2711;4;647;549;424;685;24;6;688;1374;4;511;196;595;223;24;7;754;1209;4;808;485;17;8;771;1222;4;820;480;17;9;416;617;4;459;532;13
27.11.19;14:15:00;1;302;3591;0;2;328;1155;4;357;392;14;3;201;656;4;243;508;16;4;281;891;5;292;235;13;5;737;2609;4;362;311;420;667;24;6;385;1319;4;270;97;581;213;24;7;344;1144;4;385;480;17;8;363;1156;4;397;477;17;9;195;581;4;225;522;13
27.11.19;14:10:00;1;311;3565;0;2;230;1127;4;259;380;14;3;137;639;4;176;504;16;4;181;867;5;188;229;13;5;515;2551;4;256;224;404;623;24;6;278;1287;4;217;80;580;213;24;7;201;1115;4;238;450;17;8;207;1125;4;244;458;17;9;111;564;4;137;509;13
27.11.19;14:05:00;1;314;3539;0;2;218;1107;4;249;383;14;3;131;627;4;165;464;16;4;171;852;5;178;226;13;5;480;2508;4;228;205;406;627;24;6;254;1265;4;195;72;577;213;24;7;178;1098;4;211;417;17;8;182;1107;4;210;422;17;9;98;555;4;123;479;13
27.11.19;14:00:00;1;341;3513;0;2;267;1089;4;298;390;14;3;161;616;4;197;474;16;4;218;838;5;227;227;13;5;567;2468;4;281;244;402;629;24;6;302;1243;4;198;70;586;213;24;7;258;1083;4;290;453;17;8;257;1092;4;290;461;17;9;137;546;4;163;513;13
27.11.19;13:55:00;1;307;3489;0;2;332;1067;4;366;394;14;3;205;603;4;246;496;17;4;278;820;5;290;234;13;5;713;2420;4;348;307;421;632;24;6;373;1218;4;352;129;577;213;24;7;359;1061;4;393;474;17;8;358;1071;4;400;466;17;9;195;535;4;221;511;13
27.11.19;13:50:00;1;208;3467;0;2;324;1039;4;357;390;14;3;202;586;4;240;510;16;4;272;797;5;284;236;13;5;703;2360;4;354;300;416;633;24;6;372;1186;4;294;107;584;213;24;7;428;1031;4;459;467;17;8;431;1041;4;465;475;17;9;227;519;4;259;516;13
27.11.19;13:45:00;1;208;3450;0;2;230;1012;4;260;381;14;3;140;569;4;176;505;16;4;185;774;5;192;225;13;5;513;2302;4;251;221;405;619;24;6;276;1156;4;235;86;581;213;24;7;298;995;4;344;480;17;8;311;1005;4;355;472;17;9;174;500;4;200;517;13
27.11.19;13:40:00;1;208;3432;0;2;227;993;4;260;382;14;3;139;557;4;176;498;16;4;186;758;5;194;229;13;5;513;2260;4;251;223;400;604;24;6;274;1133;4;158;58;577;213;24;7;247;970;4;286;445;17;8;254;979;4;289;469;17;9;136;485;4;164;508;13